QPF
0.00 0.00 0.00 0.00 0.00 0.00 0.00 0.00 0.00 0.00 0.00 0.00 0.00 0.00 0.00 0.00 0.00 0.00 0.00 0.00 0.00 0.00 0.00 0.00 0.00 0.00 0.00 0.00 0.00 0.02 0.00 0.00 0.00 0.00 0.00 0.04 0.03 0.02 0.01 0.00 0.00 0.00 0.00 0.00 0.00
0.00 0.00 0.00 0.00 0.00 0.00 0.00 0.00 0.00 0.00 0.00 0.00 0.00 0.00 0.00 0.00 0.00 0.00 0.00 0.00 0.00 0.00 0.00 0.00 0.00 0.00 0.00 0.00 0.00 0.01 0.01 0.00 0.00 0.00 0.00 0.00 0.01 0.00 0.00 0.00 0.00 0.04 0.00 0.00 0.00
0.00 0.00 0.00 0.00 0.00 0.00 0.00 0.00 0.00 0.00 0.00 0.00 0.00 0.00 0.00 0.00 0.00 0.00 0.00 0.00 0.00 0.00 0.00 0.00 0.00 0.00 0.00 0.00 0.00 0.00 0.00 0.00 0.00 0.00 0.00 0.00 0.00 0.00 0.00 0.00 0.01 0.01 0.00 0.00 0.00
0.00 0.00 0.00 0.00 0.00 0.00 0.00 0.00 0.00 0.00 0.00 0.00 0.00 0.00 0.00 0.00 0.00 0.00 0.00 0.00 0.00 0.00 0.00 0.00 0.00 0.00 0.00 0.00 0.00 0.00 0.00 0.00 0.00 0.00 0.00 0.00 0.00 0.00 0.00 0.01 0.00 0.00 0.00 0.00 0.00
0.00 0.00 0.00 0.00 0.00 0.00 0.00 0.00 0.00 0.00 0.00 0.00 0.00 0.00 0.00 0.00 0.00 0.00 0.00 0.00 0.00 0.00 0.00 0.00 0.00 0.00 0.00 0.00 0.00 0.00 0.00 0.00 0.01 0.01 0.00 0.00 0.00 0.00 0.00 0.00 0.00 0.00 0.00 0.00 0.00
0.00 0.00 0.00 0.00 0.00 0.00 0.00 0.00 0.00 0.00 0.00 0.00 0.00 0.00 0.00 0.00 0.00 0.00 0.00 0.00 0.00 0.00 0.00 0.00 0.00 0.00 0.00 0.00 0.00 0.00 0.00 0.00 0.00 0.00 0.00 0.00 0.00 0.00 0.00 0.00 0.00 0.00 0.00 0.00 0.01
0.00 0.00 0.00 0.00 0.00 0.00 0.00 0.00 0.00 0.00 0.00 0.00 0.00 0.00 0.00 0.00 0.00 0.00 0.00 0.00 0.00 0.00 0.00 0.00 0.00 0.00 0.00 0.00 0.00 0.00 0.00 0.00 0.00 0.00 0.00 0.00 0.00 0.00 0.00 0.00 0.00 0.00 0.00 0.01 0.02
0.00 0.00 0.00 0.00 0.00 0.00 0.00 0.00 0.00 0.00 0.00 0.00 0.00 0.00 0.00 0.00 0.00 0.00 0.00 0.00 0.00 0.00 0.00 0.00 0.00 0.00 0.00 0.00 0.00 0.00 0.00 0.00 0.00 0.00 0.00 0.00 0.00 0.00 0.00 0.00 0.00 0.00 0.00 0.02 0.06
0.00 0.00 0.00 0.00 0.00 0.00 0.00 0.00 0.00 0.00 0.00 0.00 0.00 0.00 0.00 0.00 0.00 0.00 0.00 0.00 0.00 0.00 0.00 0.00 0.00 0.00 0.00 0.00 0.00 0.00 0.00 0.00 0.00 0.00 0.00 0.00 0.00 0.00 0.00 0.00 0.00 0.00 0.00 0.01 0.19
0.00 0.00 0.00 0.00 0.00 0.00 0.00 0.00 0.00 0.00 0.00 0.00 0.00 0.00 0.00 0.00 0.00 0.00 0.00 0.00 0.00 0.00 0.00 0.00 0.00 0.00 0.00 0.00 0.00 0.00 0.00 0.00 0.00 0.00 0.00 0.00 0.00 0.00 0.00 0.00 0.00 0.00 0.00 0.02 0.19
0.00 0.00 0.00 0.00 0.00 0.00 0.00 0.00 0.00 0.00 0.00 0.00 0.00 0.00 0.00 0.00 0.00 0.00 0.00 0.00 0.00 0.00 0.00 0.00 0.00 0.00 0.00 0.00 0.00 0.00 0.00 0.00 0.00 0.00 0.00 0.00 0.00 0.00 0.00 0.00 0.00 0.00 0.00 0.00 0.03
0.00 0.00 0.00 0.00 0.00 0.00 0.00 0.00 0.00 0.00 0.00 0.00 0.00 0.00 0.00 0.00 0.00 0.00 0.00 0.00 0.00 0.00 0.00 0.00 0.00 0.00 0.00 0.00 0.00 0.00 0.00 0.00 0.00 0.00 0.00 0.00 0.00 0.00 0.00 0.00 0.00 0.00 0.00 0.03 0.04
0.00 0.00 0.00 0.00 0.00 0.00 0.00 0.00 0.00 0.00 0.00 0.00 0.00 0.00 0.00 0.00 0.00 0.00 0.00 0.00 0.00 0.00 0.00 0.00 0.00 0.00 0.00 0.00 0.00 0.00 0.00 0.00 0.00 0.00 0.00 0.00 0.00 0.00 0.00 0.00 0.00 0.00 0.00 0.01 0.01
0.00 0.00 0.00 0.00 0.00 0.00 0.00 0.00 0.00 0.00 0.00 0.00 0.00 0.00 0.00 0.00 0.00 0.00 0.00 0.00 0.00 0.00 0.00 0.00 0.00 0.00 0.00 0.00 0.00 0.00 0.00 0.00 0.00 0.00 0.00 0.00 0.00 0.00 0.00 0.00 0.00 0.00 0.00 0.00 0.00
0.00 0.00 0.00 0.00 0.00 0.00 0.00 0.00 0.00 0.00 0.00 0.00 0.00 0.00 0.00 0.00 0.00 0.00 0.00 0.00 0.00 0.00 0.00 0.00 0.00 0.00 0.00 0.00 0.00 0.00 0.00 0.00 0.00 0.00 0.00 0.00 0.00 0.00 0.00 0.00 0.00 0.00 0.00 0.00 0.00
0.00 0.00 0.00 0.00 0.00 0.00 0.00 0.00 0.00 0.00 0.00 0.00 0.00 0.00 0.00 0.00 0.00 0.00 0.00 0.00 0.00 0.00 0.00 0.00 0.00 0.00 0.00 0.00 0.00 0.00 0.00 0.00 0.00 0.00 0.00 0.00 0.00 0.00 0.00 0.00 0.00 0.00 0.00 0.00 0.00
0.00 0.00 0.00 0.00 0.00 0.00 0.00 0.00 0.00 0.00 0.00 0.00 0.00 0.00 0.00 0.00 0.00 0.00 0.00 0.00 0.00 0.00 0.00 0.00 0.00 0.00 0.00 0.00 0.00 0.00 0.00 0.00 0.00 0.00 0.00 0.00 0.00 0.00 0.00 0.00 0.00 0.00 0.00 0.00 0.01
0.00 0.00 0.00 0.00 0.00 0.00 0.00 0.00 0.00 0.00 0.00 0.00 0.00 0.00 0.00 0.00 0.00 0.00 0.00 0.00 0.00 0.00 0.00 0.00 0.00 0.00 0.00 0.00 0.00 0.00 0.00 0.00 0.00 0.00 0.00 0.00 0.00 0.00 0.00 0.00 0.00 0.00 0.00 0.00 0.02
0.00 0.00 0.00 0.00 0.00 0.00 0.00 0.00 0.00 0.00 0.00 0.00 0.00 0.00 0.00 0.00 0.00 0.00 0.00 0.00 0.00 0.00 0.00 0.00 0.00 0.00 0.00 0.00 0.00 0.00 0.00 0.00 0.00 0.00 0.00 0.00 0.00 0.00 0.00 0.00 0.00 0.00 0.00 0.00 0.01
0.00 0.00 0.00 0.00 0.00 0.00 0.00 0.00 0.00 0.00 0.00 0.00 0.00 0.00 0.00 0.00 0.00 0.00 0.00 0.00 0.00 0.00 0.00 0.00 0.00 0.00 0.00 0.00 0.00 0.00 0.00 0.00 0.00 0.00 0.00 0.00 0.00 0.00 0.00 0.00 0.00 0.00 0.00 0.00 0.00
0.00 0.00 0.00 0.00 0.00 0.00 0.00 0.00 0.00 0.00 0.00 0.00 0.00 0.00 0.00 0.00 0.00 0.00 0.00 0.00 0.00 0.00 0.00 0.00 0.00 0.00 0.00 0.00 0.00 0.00 0.00 0.00 0.00 0.00 0.00 0.00 0.00 0.00 0.00 0.00 0.00 0.00 0.00 0.00 0.00
0.00 0.00 0.00 0.00 0.00 0.00 0.00 0.00 0.00 0.00 0.00 0.00 0.00 0.00 0.00 0.00 0.00 0.00 0.00 0.00 0.00 0.00 0.00 0.00 0.00 0.00 0.00 0.00 0.00 0.00 0.00 0.00 0.00 0.00 0.00 0.00 0.00 0.00 0.00 0.00 0.00 0.00 0.00 0.00 0.00
0.00 0.00 0.00 0.00 0.00 0.00 0.00 0.00 0.00 0.00 0.00 0.00 0.00 0.00 0.00 0.00 0.00 0.00 0.00 0.00 0.00 0.00 0.00 0.00 0.00 0.00 0.00 0.00 0.00 0.00 0.00 0.00 0.00 0.00 0.00 0.00 0.00 0.00 0.00 0.00 0.00 0.00 0.00 0.00 0.00
0.00 0.00 0.00 0.00 0.00 0.00 0.00 0.00 0.00 0.00 0.00 0.00 0.00 0.00 0.00 0.00 0.00 0.00 0.00 0.00 0.00 0.00 0.00 0.00 0.00 0.00 0.00 0.00 0.00 0.00 0.00 0.00 0.00 0.00 0.00 0.00 0.00 0.00 0.00 0.00 0.00 0.00 0.00 0.00 0.00
0.00 0.00 0.00 0.00 0.00 0.00 0.00 0.00 0.00 0.00 0.00 0.00 0.00 0.00 0.00 0.00 0.00 0.00 0.00 0.00 0.00 0.00 0.00 0.00 0.00 0.00 0.00 0.00 0.00 0.00 0.00 0.00 0.00 0.00 0.00 0.00 0.00 0.00 0.00 0.00 0.00 0.00 0.00 0.00 0.00
0.00 0.00 0.00 0.00 0.00 0.00 0.00 0.00 0.00 0.00 0.00 0.00 0.00 0.00 0.00 0.00 0.00 0.00 0.00 0.00 0.00 0.00 0.00 0.00 0.00 0.00 0.00 0.00 0.00 0.00 0.00 0.00 0.00 0.00 0.00 0.00 0.00 0.00 0.00 0.00 0.00 0.00 0.00 0.00 0.00
0.00 0.00 0.00 0.00 0.00 0.00 0.00 0.00 0.00 0.00 0.00 0.00 0.00 0.00 0.00 0.00 0.00 0.00 0.00 0.00 0.00 0.00 0.00 0.00 0.00 0.00 0.00 0.00 0.00 0.00 0.00 0.00 0.01 0.02 0.01 0.00 0.00 0.00 0.00 0.00 0.00 0.00 0.00 0.00 0.00
MSLP
1018.38 1017.95 1017.60 1017.25 1016.92 1016.68 1016.47 1016.18 1015.99 1015.87 1015.74 1015.47 1015.16 1014.94 1014.83 1014.48 1013.77 1013.81 1013.01 1010.86 1010.58 1010.36 1010.69 1010.56 1011.02 1011.21 1011.11 1011.68 1012.11 1012.67 1013.95 1014.44 1014.24 1013.45 1011.90 1010.50 1011.02 1010.04 1010.28 1009.91 1010.13 1009.76 1009.61 1009.20 1009.83
1018.39 1017.99 1017.55 1017.14 1016.82 1016.52 1016.25 1015.97 1015.72 1015.58 1015.54 1015.41 1015.15 1014.84 1014.71 1014.47 1013.98 1012.56 1009.98 1009.92 1010.02 1010.19 1010.57 1010.63 1010.74 1011.09 1011.48 1011.56 1012.17 1012.75 1013.06 1012.61 1012.20 1012.01 1011.58 1010.03 1009.95 1010.58 1011.06 1010.23 1010.05 1009.28 1008.65 1009.45 1010.28
1018.43 1017.96 1017.52 1017.10 1016.66 1016.29 1015.98 1015.80 1015.64 1015.48 1015.32 1015.18 1014.96 1014.74 1014.52 1014.38 1013.46 1009.84 1008.42 1009.05 1009.35 1009.93 1010.26 1010.31 1010.21 1010.38 1011.00 1010.63 1011.58 1011.49 1011.29 1011.59 1011.65 1011.24 1010.94 1010.33 1009.74 1010.58 1010.57 1010.27 1009.85 1008.73 1008.65 1009.68 1010.36
1018.54 1017.96 1017.42 1016.98 1016.60 1016.31 1016.00 1015.67 1015.46 1015.28 1015.11 1014.98 1014.86 1014.65 1014.28 1014.01 1011.90 1008.21 1007.84 1007.99 1008.61 1009.50 1010.14 1010.10 1010.12 1010.22 1010.78 1010.98 1010.51 1010.23 1009.57 1010.42 1011.12 1011.39 1011.23 1010.76 1010.28 1010.04 1009.84 1008.57 1007.89 1007.99 1008.26 1009.28 1009.85
1018.24 1017.77 1017.33 1016.86 1016.41 1015.99 1015.64 1015.44 1015.31 1015.24 1015.13 1014.91 1014.65 1014.31 1013.90 1013.13 1010.41 1007.63 1007.84 1008.31 1008.85 1009.43 1009.73 1009.94 1009.82 1009.99 1010.38 1009.57 1009.73 1009.66 1008.83 1009.93 1010.17 1010.42 1010.14 1009.97 1009.67 1009.01 1008.46 1007.42 1007.35 1007.66 1008.52 1009.07 1009.62
1018.33 1017.85 1017.38 1016.88 1016.37 1015.92 1015.49 1015.23 1015.12 1014.98 1014.83 1014.67 1014.55 1014.39 1013.81 1011.78 1007.83 1007.67 1008.04 1008.54 1008.58 1008.95 1009.28 1009.47 1009.11 1009.08 1009.33 1009.21 1009.44 1008.51 1008.82 1009.21 1009.04 1008.92 1008.81 1009.13 1008.36 1008.40 1007.34 1007.20 1007.28 1007.75 1008.37 1008.69 1008.96
1018.34 1017.77 1017.20 1016.64 1016.15 1015.67 1015.25 1014.92 1014.77 1014.70 1014.64 1014.55 1014.44 1014.10 1013.29 1009.62 1007.72 1007.82 1007.76 1008.25 1008.12 1008.36 1008.77 1008.36 1008.42 1008.79 1008.34 1008.22 1008.20 1008.32 1009.04 1009.25 1008.71 1008.59 1008.15 1007.84 1007.40 1007.37 1006.91 1007.49 1007.55 1007.72 1007.93 1008.67 1008.98
1018.21 1017.64 1017.07 1016.52 1015.99 1015.51 1015.07 1014.73 1014.47 1014.37 1014.39 1014.45 1014.47 1014.08 1011.88 1008.11 1007.75 1007.97 1008.13 1008.05 1007.92 1007.93 1008.06 1007.32 1007.59 1007.98 1008.29 1008.34 1008.50 1008.66 1008.97 1009.41 1008.49 1008.05 1007.86 1007.73 1007.33 1007.16 1006.68 1007.47 1008.02 1008.31 1008.58 1009.74 1010.01
1018.10 1017.47 1016.84 1016.26 1015.70 1015.16 1014.73 1014.38 1014.17 1014.15 1014.22 1014.27 1014.35 1013.58 1010.61 1007.49 1007.77 1006.83 1007.38 1007.67 1007.40 1007.62 1007.54 1007.28 1007.46 1008.26 1008.52 1009.23 1009.54 1009.94 1009.97 1009.53 1008.26 1007.50 1007.44 1007.60 1007.45 1006.78 1006.54 1007.57 1008.23 1008.64 1009.14 1010.33 1011.26
1017.94 1017.26 1016.59 1016.00 1015.48 1014.83 1014.21 1013.95 1013.89 1014.06 1014.18 1014.10 1013.36 1013.00 1009.43 1007.26 1006.38 1006.35 1006.55 1006.99 1007.29 1007.37 1007.80 1007.83 1008.40 1009.08 1009.63 1009.99 1010.33 1010.43 1010.24 1009.59 1009.06 1008.22 1008.07 1007.80 1007.08 1006.62 1007.49 1008.16 1008.84 1009.20 1009.86 1010.87 1011.88
1017.90 1017.03 1016.38 1015.77 1015.31 1014.87 1014.16 1013.63 1014.06 1013.74 1013.08 1011.54 1010.56 1009.74 1008.13 1006.68 1006.00 1005.95 1006.06 1006.79 1007.22 1007.57 1008.19 1008.20 1009.28 1009.77 1009.47 1009.57 1009.30 1009.60 1009.79 1009.62 1008.34 1007.92 1008.39 1007.82 1007.44 1007.08 1007.62 1008.21 1008.94 1009.31 1010.16 1010.72 1011.29
1017.83 1016.90 1016.07 1015.40 1014.85 1014.58 1014.66 1013.55 1011.30 1010.65 1010.58 1009.53 1008.94 1008.38 1007.08 1006.92 1006.73 1005.77 1005.63 1006.65 1007.08 1007.83 1008.27 1008.97 1009.07 1008.30 1008.45 1008.70 1008.86 1008.98 1009.38 1008.91 1008.41 1007.16 1007.99 1007.27 1007.74 1008.14 1008.57 1009.09 1009.50 1010.05 1011.28 1012.02 1012.60
1017.74 1016.87 1015.92 1014.82 1014.35 1014.37 1013.71 1011.73 1009.75 1010.00 1010.07 1008.00 1007.33 1006.94 1006.24 1006.16 1005.96 1005.37 1005.46 1006.22 1007.10 1007.81 1008.28 1008.76 1007.93 1007.66 1008.22 1007.81 1008.45 1008.40 1008.75 1008.24 1008.25 1007.28 1006.98 1007.38 1008.40 1008.58 1009.55 1010.09 1010.98 1011.19 1011.56 1012.40 1012.58
1017.60 1016.83 1016.06 1014.78 1014.22 1013.71 1012.22 1009.28 1009.64 1009.82 1009.93 1007.49 1006.21 1005.16 1005.13 1005.24 1005.09 1004.64 1005.06 1005.97 1006.90 1007.37 1007.94 1008.16 1007.51 1007.54 1006.92 1007.25 1007.44 1007.95 1006.50 1007.37 1007.75 1007.53 1007.76 1007.98 1009.31 1009.86 1010.78 1011.49 1011.80 1012.53 1012.38 1012.34 1012.88
1017.32 1016.56 1016.01 1016.00 1014.93 1013.35 1010.03 1009.49 1009.54 1009.71 1009.38 1006.13 1005.28 1003.90 1004.32 1005.18 1004.66 1004.38 1004.54 1005.47 1006.19 1006.82 1007.56 1007.08 1007.02 1006.88 1006.52 1006.20 1006.16 1006.83 1006.64 1007.04 1007.07 1007.79 1008.47 1008.74 1009.89 1011.35 1011.80 1012.53 1013.31 1013.13 1012.09 1011.73 1012.89
1016.65 1016.15 1015.79 1015.20 1014.89 1011.22 1010.01 1009.62 1009.36 1010.22 1008.27 1005.52 1004.42 1004.32 1004.88 1004.92 1004.63 1004.61 1004.73 1005.10 1005.44 1006.37 1006.70 1006.68 1006.08 1005.98 1005.30 1005.31 1005.73 1006.21 1006.40 1007.16 1008.21 1008.99 1009.94 1010.17 1011.04 1012.15 1012.60 1013.36 1013.47 1013.30 1012.03 1011.46 1012.59
1015.81 1014.87 1015.42 1014.37 1011.96 1010.15 1009.93 1010.02 1010.76 1010.14 1007.13 1005.54 1004.84 1004.74 1004.86 1004.98 1004.95 1004.91 1005.08 1005.63 1006.12 1006.89 1007.12 1006.51 1006.09 1005.23 1004.84 1005.09 1005.34 1006.20 1007.74 1008.74 1009.96 1010.83 1011.03 1010.75 1011.53 1012.06 1012.86 1013.28 1013.56 1013.13 1012.66 1012.29 1012.40
1015.03 1013.53 1012.71 1011.90 1010.62 1010.66 1010.61 1011.32 1010.96 1008.69 1006.95 1005.20 1005.04 1004.69 1004.96 1004.70 1004.72 1004.70 1005.19 1005.67 1005.89 1006.41 1007.17 1007.27 1006.61 1005.63 1005.25 1005.76 1006.41 1007.02 1008.29 1009.56 1010.66 1011.66 1011.60 1011.10 1011.93 1012.05 1012.65 1013.14 1013.52 1013.61 1013.26 1012.72 1012.72
1014.27 1012.87 1012.18 1009.41 1010.04 1010.81 1011.34 1011.66 1010.24 1008.39 1006.74 1005.98 1005.04 1004.81 1004.96 1004.86 1004.73 1004.83 1005.42 1005.77 1006.01 1006.20 1007.07 1007.27 1006.77 1005.87 1005.50 1005.88 1006.53 1007.27 1008.34 1008.95 1010.36 1011.58 1012.06 1012.01 1012.56 1012.56 1012.96 1013.27 1013.80 1014.12 1014.06 1013.76 1013.01
1015.19 1013.63 1010.89 1008.31 1009.22 1010.31 1011.52 1011.34 1009.67 1007.87 1006.81 1006.21 1005.91 1005.48 1005.40 1005.19 1005.07 1005.11 1005.58 1005.74 1005.94 1006.18 1006.29 1007.06 1007.16 1006.45 1005.91 1006.08 1006.67 1007.18 1007.97 1009.12 1010.78 1012.18 1012.94 1012.62 1012.66 1012.74 1013.18 1013.40 1013.64 1013.88 1014.24 1014.21 1013.73
1015.30 1013.32 1008.76 1008.16 1008.87 1010.89 1011.77 1010.83 1009.06 1007.65 1007.11 1006.45 1005.95 1005.89 1005.38 1004.92 1005.19 1005.40 1005.45 1005.66 1005.51 1005.84 1006.65 1007.13 1007.60 1007.58 1006.54 1007.23 1007.31 1007.24 1008.04 1009.46 1010.85 1012.02 1012.94 1013.34 1013.18 1012.57 1012.99 1013.54 1013.85 1014.10 1014.28 1014.28 1014.09
1016.47 1013.70 1009.06 1008.55 1010.16 1011.24 1011.49 1010.00 1008.59 1007.49 1006.81 1006.54 1005.94 1005.34 1004.99 1005.25 1005.74 1005.91 1005.84 1005.69 1005.71 1005.78 1006.77 1007.57 1008.19 1008.57 1008.27 1007.39 1007.37 1007.59 1008.12 1009.31 1011.06 1012.08 1012.65 1013.12 1012.78 1012.46 1013.00 1013.75 1013.99 1014.23 1014.29 1014.20 1014.23
1017.83 1014.66 1009.76 1009.48 1010.83 1011.56 1010.90 1009.94 1008.82 1007.53 1006.72 1006.19 1005.89 1005.44 1005.47 1005.98 1006.54 1006.19 1005.99 1006.13 1005.76 1006.06 1006.94 1007.72 1009.00 1009.58 1009.21 1008.64 1007.82 1007.83 1008.12 1008.81 1010.11 1011.24 1012.16 1013.18 1012.93 1012.82 1013.20 1014.04 1014.21 1014.36 1014.49 1014.67 1014.38
1018.06 1015.65 1012.54 1011.63 1011.92 1012.34 1012.05 1010.47 1009.10 1007.53 1006.98 1006.85 1006.94 1006.24 1006.75 1006.65 1006.77 1006.92 1006.71 1006.79 1006.56 1006.24 1007.06 1007.99 1009.52 1010.03 1010.01 1009.25 1008.81 1008.61 1008.12 1008.62 1009.68 1011.17 1011.70 1012.20 1012.75 1013.35 1013.77 1014.14 1014.53 1014.54 1014.58 1014.55 1014.54
1018.05 1017.09 1015.99 1014.76 1013.45 1013.31 1012.70 1011.44 1010.10 1009.07 1008.50 1008.50 1008.43 1009.26 1009.02 1008.94 1008.61 1008.41 1008.26 1007.65 1007.64 1007.11 1008.10 1008.54 1009.72 1010.03 1009.75 1009.32 1008.65 1008.38 1008.12 1008.18 1009.12 1009.79 1010.99 1011.59 1012.56 1013.24 1013.65 1013.86 1014.33 1014.77 1014.74 1014.65 1014.60
1019.13 1018.61 1017.37 1016.36 1015.00 1014.05 1013.16 1012.26 1011.16 1010.25 1010.06 1010.22 1010.23 1010.00 1010.18 1011.18 1011.74 1011.23 1010.00 1008.68 1008.23 1008.84 1008.82 1009.30 1009.85 1010.04 1009.78 1008.96 1008.63 1008.15 1007.65 1007.81 1008.22 1009.39 1010.43 1011.38 1012.48 1012.81 1013.24 1013.48 1013.96 1014.31 1014.55 1014.54 1014.64
1020.37 1019.51 1018.97 1017.25 1016.09 1014.98 1014.43 1013.28 1012.09 1011.42 1011.40 1011.36 1011.09 1010.48 1010.47 1010.95 1010.78 1010.76 1010.53 1009.57 1009.01 1008.86 1009.81 1010.23 1010.26 1010.45 1010.02 1009.16 1008.53 1008.13 1007.14 1007.28 1008.35 1009.01 1010.01 1011.35 1011.74 1012.63 1013.28 1013.29 1013.34 1013.87 1014.06 1014.03 1014.06
Thickness
5739 5743 5746 5749 5754 5757 5761 5765 5768 5770 5772 5776 5780 5783 5786 5790 5796 5794 5793 5815 5818 5820 5818 5815 5808 5804 5806 5795 5794 5790 5748 5741 5749 5751 5771 5795 5782 5803 5803 5798 5802 5812 5813 5822 5825
5738 5741 5745 5749 5752 5756 5760 5764 5768 5770 5772 5775 5778 5783 5785 5788 5791 5795 5824 5825 5824 5822 5816 5806 5798 5799 5785 5788 5787 5770 5750 5757 5778 5777 5777 5801 5798 5794 5783 5791 5794 5809 5826 5826 5818
5738 5741 5745 5748 5752 5756 5759 5762 5766 5769 5771 5774 5778 5781 5784 5786 5788 5809 5836 5832 5829 5824 5819 5815 5811 5803 5782 5797 5783 5780 5765 5776 5782 5791 5793 5791 5794 5794 5782 5782 5795 5804 5815 5816 5811
5738 5743 5746 5749 5752 5755 5758 5761 5764 5767 5770 5773 5775 5779 5784 5786 5771 5830 5839 5839 5835 5828 5817 5810 5802 5792 5778 5776 5792 5780 5799 5791 5786 5785 5784 5779 5793 5786 5789 5805 5819 5820 5825 5814 5806
5741 5744 5747 5750 5753 5756 5759 5761 5763 5765 5767 5770 5774 5778 5784 5779 5792 5837 5837 5835 5831 5823 5810 5802 5796 5792 5773 5794 5793 5785 5800 5793 5794 5792 5791 5795 5787 5790 5795 5818 5824 5823 5811 5807 5804
5740 5744 5747 5750 5754 5756 5758 5761 5763 5765 5767 5769 5771 5773 5775 5765 5828 5832 5832 5829 5827 5819 5811 5808 5806 5806 5795 5794 5781 5800 5796 5794 5801 5801 5805 5792 5798 5797 5809 5816 5818 5813 5805 5804 5806
5739 5744 5749 5752 5755 5758 5760 5763 5764 5765 5767 5768 5769 5771 5767 5780 5824 5825 5830 5824 5829 5823 5809 5821 5822 5809 5809 5796 5809 5802 5782 5786 5799 5801 5797 5806 5796 5794 5813 5813 5810 5810 5808 5802 5801
5739 5745 5749 5753 5756 5759 5761 5763 5766 5767 5767 5766 5765 5766 5763 5813 5818 5818 5821 5820 5826 5826 5820 5831 5828 5814 5803 5809 5798 5789 5783 5760 5792 5801 5804 5803 5769 5800 5818 5806 5800 5799 5800 5791 5794
5738 5744 5750 5754 5758 5762 5764 5766 5767 5767 5766 5765 5764 5764 5767 5820 5806 5824 5822 5811 5818 5819 5821 5827 5819 5797 5797 5775 5764 5763 5747 5761 5784 5806 5802 5798 5779 5806 5819 5807 5791 5794 5797 5780 5771
5737 5744 5750 5755 5759 5764 5769 5770 5769 5767 5766 5765 5768 5757 5788 5796 5817 5824 5828 5822 5809 5809 5802 5801 5784 5770 5765 5758 5734 5748 5749 5760 5762 5789 5790 5785 5786 5803 5801 5795 5788 5786 5781 5769 5758
5735 5743 5749 5755 5759 5763 5769 5772 5764 5761 5766 5772 5780 5777 5793 5813 5825 5818 5825 5813 5808 5798 5771 5787 5762 5748 5766 5771 5780 5772 5762 5756 5779 5793 5779 5775 5783 5796 5802 5789 5778 5778 5774 5765 5757
5733 5742 5750 5756 5761 5764 5763 5767 5780 5787 5766 5789 5793 5794 5806 5810 5789 5807 5825 5794 5790 5768 5780 5767 5753 5782 5791 5789 5782 5774 5760 5760 5775 5796 5777 5784 5779 5784 5783 5781 5777 5773 5761 5754 5748
5730 5739 5748 5758 5763 5765 5768 5779 5800 5796 5764 5789 5799 5797 5804 5808 5793 5799 5813 5798 5782 5768 5769 5755 5776 5794 5784 5783 5772 5772 5760 5765 5761 5786 5791 5781 5760 5774 5770 5769 5763 5761 5759 5748 5746
5726 5735 5743 5756 5763 5766 5772 5800 5798 5798 5741 5771 5792 5806 5814 5813 5795 5824 5823 5803 5784 5771 5771 5764 5787 5783 5786 5775 5781 5750 5798 5783 5773 5769 5743 5775 5725 5756 5753 5746 5749 5748 5750 5747 5742
5722 5731 5739 5741 5751 5761 5790 5798 5799 5787 5708 5792 5796 5835 5821 5798 5807 5809 5829 5807 5779 5779 5783 5772 5778 5777 5775 5784 5796 5771 5796 5784 5790 5772 5759 5760 5733 5732 5741 5731 5724 5737 5748 5749 5735
5723 5729 5735 5742 5745 5777 5789 5793 5790 5731 5710 5782 5803 5797 5792 5799 5801 5809 5809 5816 5808 5785 5787 5782 5803 5795 5792 5801 5798 5800 5788 5775 5763 5745 5716 5741 5730 5716 5718 5718 5723 5729 5744 5746 5732
5724 5734 5732 5740 5758 5779 5785 5775 5723 5706 5778 5781 5784 5793 5784 5782 5788 5793 5788 5777 5765 5753 5750 5776 5781 5798 5808 5788 5796 5781 5750 5714 5711 5706 5708 5743 5723 5719 5719 5722 5718 5721 5727 5732 5729
5725 5740 5748 5756 5768 5769 5768 5739 5711 5746 5761 5796 5790 5786 5773 5787 5786 5790 5779 5765 5779 5774 5748 5743 5739 5781 5798 5782 5771 5767 5749 5712 5695 5691 5707 5739 5709 5718 5725 5720 5714 5710 5712 5720 5717
5726 5738 5746 5770 5767 5761 5741 5705 5720 5746 5775 5772 5782 5771 5767 5782 5788 5783 5772 5767 5777 5780 5749 5744 5749 5790 5795 5791 5779 5763 5736 5755 5724 5717 5699 5712 5712 5724 5721 5713 5706 5700 5696 5697 5703
5710 5723 5744 5771 5767 5752 5720 5710 5736 5768 5774 5771 5751 5767 5750 5763 5771 5769 5769 5780 5777 5783 5785 5763 5741 5777 5790 5790 5780 5767 5766 5726 5709 5695 5685 5697 5706 5699 5703 5707 5705 5697 5689 5690 5693
5705 5719 5757 5766 5761 5726 5702 5714 5747 5771 5770 5761 5756 5753 5765 5772 5769 5761 5766 5781 5789 5786 5778 5769 5751 5754 5777 5761 5748 5753 5734 5731 5716 5699 5678 5669 5683 5708 5705 5701 5695 5694 5690 5684 5681
5684 5704 5750 5757 5715 5707 5706 5730 5752 5756 5766 5761 5767 5770 5771 5770 5761 5758 5759 5774 5784 5788 5765 5765 5741 5733 5747 5769 5767 5756 5747 5731 5696 5702 5692 5680 5680 5715 5704 5695 5691 5687 5687 5684 5679
5666 5689 5742 5742 5699 5700 5713 5729 5742 5749 5756 5757 5760 5774 5776 5761 5746 5759 5766 5774 5780 5774 5762 5763 5726 5705 5717 5737 5749 5747 5748 5744 5717 5704 5698 5677 5678 5704 5699 5683 5685 5681 5681 5674 5672
5668 5680 5706 5714 5707 5702 5697 5712 5725 5754 5752 5751 5748 5759 5748 5750 5757 5752 5754 5761 5769 5774 5761 5756 5725 5714 5692 5710 5729 5725 5738 5738 5716 5687 5694 5689 5690 5690 5685 5680 5674 5676 5674 5673 5667
5666 5670 5675 5670 5687 5687 5693 5702 5710 5712 5733 5731 5727 5724 5727 5726 5729 5735 5740 5746 5751 5758 5753 5743 5718 5719 5723 5727 5732 5729 5734 5738 5718 5715 5698 5700 5689 5683 5680 5680 5673 5665 5665 5664 5661
5650 5650 5657 5662 5674 5680 5681 5689 5698 5709 5711 5706 5709 5721 5712 5696 5697 5699 5727 5732 5736 5738 5736 5730 5713 5718 5720 5735 5730 5723 5736 5735 5729 5716 5700 5691 5684 5689 5685 5683 5675 5670 5663 5659 5657
5633 5642 5644 5653 5662 5668 5665 5679 5690 5701 5703 5705 5710 5717 5711 5710 5716 5714 5716 5725 5731 5725 5712 5713 5709 5702 5694 5724 5718 5703 5726 5729 5715 5714 5704 5678 5687 5683 5676 5678 5674 5671 5668 5664 5664